Other Public Products
Issued by NWS Grand Forks, ND

Home | Current Version | Previous Version | Graphics & Text | Print | Product List | Glossary On
Versions: 1 2 3 4 5 6 7 8 9 10 11 12 13 14 15 16 17 18 19 20 21 22 23 24 25 26 27 28 29 30 31 32 33 34 35 36 37 38 39 40 41 42 43 44 45 46 47 48 49 50
000
FPUS83 KFGF 230431
OPUFGF
PRAIRIE TO PINES WEATHER ROUNDUP
NATIONAL WEATHER SERVICE EASTERN NORTH DAKOTA/GRAND FORKS ND
1100 PM CDT SAT APR 22 2017

 **SATELLITE DATA USED TO AUGMENT SKY COVER AT AUTOMATED STATIONS**
 *****  WEATHER ACROSS EASTERN NORTH DAKOTA  *****

CITY           SKY/WX    TMP DP  RH WIND       PRES   REMARKS
GRAND FORKS    FLURRIES  35  31  85 N13       30.23S
GRAND FORKS AF CLOUDY    32  28  86 NE17      30.23S WCI  21
GRAND CITY NWS NOT AVBL
BUXTON           N/A    N/A N/A N/A CALM        N/A
DEVILS LAKE    LGT RAIN  33  29  85 NE18G26   30.23R WCI  22
FARGO          LGT RAIN  39  33  79 N21G35    30.15R
WAHPETON ARPT  FAIR      43  36  75 N20G25    30.09R
$$

 *****  WEATHER ACROSS CENTRAL AND WESTERN NORTH DAKOTA  *****

CITY           SKY/WX    TMP DP  RH WIND       PRES   REMARKS
JAMESTOWN      CLOUDY    35  30  82 NE14G23   30.18R
BISMARCK       MOCLDY    41  35  79 NE18      30.15R
MINOT          CLOUDY    34  30  85 E15       30.21R WCI  24
MINOT AFB      CLOUDY    32  32 100 E15       30.19F WCI  22
GARRISON         N/A     34  28  79 E16G23    30.17R WCI  24
WILLISTON      CLOUDY    39  32  76 E8        30.13F
DICKINSON      CLOUDY    38  35  89 NE16      30.07R
HETTINGER      CLOUDY    54  41  61 NE3       30.04S
$$

 *****  OTHER OBSERVATIONS NORTHEAST NORTH DAKOTA  *****

CITY           SKY/WX    TMP DP  RH WIND       PRES   REMARKS
WALHALLA       NOT AVBL
LANGDON        CLOUDY    32  28  86 NE17G25   30.24R WCI  21
CAVALIER       MOCLDY    32  25  74 N14       30.27S WCI  22
GRAFTON        FLURRIES  32  27  80 N20       30.27R WCI  20
CANDO          NOT AVBL
FORT TOTTEN      N/A     34  31  89 NE8       29.95S
ROLLA          CLOUDY    30  25  80 NE13      30.24S WCI  20
RUGBY          NOT AVBL
 ***** THE ABOVE OBSERVATIONS ARE NON NWS ARE NOT QUALITY
        CONTROLLED AND MAY MIS-REPORT RAIN FOR SNOW...
$$

 *****  OTHER OBSERVATIONS SOUTHEAST NORTH DAKOTA *****

CITY           SKY/WX    TMP DP  RH WIND       PRES   REMARKS
COOPERSTOWN    LGT RAIN  32  32 100 NE25G32   30.19S WCI  19
VALLEY CITY    CLOUDY    34  28  80 NE16G24   30.18S WCI  23
OAKES          NOT AVBL
GWINNER        MOCLDY    39  34  81 MISG      30.13R
SHEYENNE NWR     N/A     38  31  75 N17       29.95S
BUFFALO          N/A     34  26  74 SE23        N/A  WCI  21
WYNDMERE         N/A     43  37  81 VRB16       N/A
 ***** THE ABOVE OBSERVATIONS ARE NON NWS ARE NOT QUALITY
       CONTROLLED AND MAY MIS-REPORT RAIN FOR SNOW...
$$

  *****  WEATHER ACROSS NORTHERN MINNESOTA  *****

CITY           SKY/WX    TMP DP  RH WIND       PRES   REMARKS
FLAG ISLAND    MOCLDY    34  27  75 NW18      30.22R WCI  23
WARROAD        FAIR      32  25  74 N12       30.23R WCI  23
ROSEAU         MOCLDY    34  27  75 N8        30.24R
HALLOCK        FAIR      32  23  69 N14       30.26S WCI  22
THF RVR FALLS  FLURRIES  32  30  92 NE9       30.22R WCI  24
HALSTAD          N/A     36  32  85 N17         N/A
FOSSTON        CLOUDY    36  28  75 N18       30.18S
BAUDETTE       CLOUDY    34  27  75 N8        30.20R
WASKISH        LGT RAIN  36  34  93 N6        30.19R
CROOKSTON      MIX PCPN  34  32  93 NE8       30.23S
$$
  *****  WEATHER ACROSS CENTRAL AND WEST MINNESOTA  *****

CITY           SKY/WX    TMP DP  RH WIND       PRES   REMARKS
BEMIDJI        DRIZZLE   38  35  89 N10       30.15R
PARK RAPIDS    CLOUDY    46  35  65 N22G28    30.09R
WADENA         CLOUDY    54  43  66 N9        30.06R
DETROIT LAKES  FAIR      45  37  76 NE12G20   30.10R
MOORHEAD       MOCLDY    39  36  87 N20G25    30.15S
FERGUS FALLS   FAIR      48  39  71 N14       30.05R
ELBOW LAKE     FAIR      49  42  74 NW6       30.06R
MORRIS MN      FAIR      52  39  62 SW9       30.06F
STAPLES        CLOUDY    52  37  58 NW6       30.04S
WHEATON        FAIR      46  39  76 NW13      30.11R
$$
  *****  WEATHER ELSEWHERE ACROSS MINNESOTA  *****

CITY           SKY/WX    TMP DP  RH WIND       PRES   REMARKS
DULUTH         CLOUDY    51  39  63 N14       30.06R
INTRNTL FALLS  LGT RAIN  36  33  89 N9        30.17R
ELY            CLOUDY    41  37  87 N6        30.09R
CLOQUET        FAIR      52  37  58 N7        30.06R
BRAINERD       CLOUDY    52  36  54 CALM      30.04F
HIBBING        MOCLDY    42  37  82 N8        30.09R
ALEXANDRIA     FAIR      53  38  56 SW10      30.07F
SAINT CLOUD    FAIR      50  40  68 S7        30.07F
MINNEAPOLIS    FAIR      57  38  48 CALM      30.10S
$$

  *****  WEATHER ACROSS SOUTH DAKOTA  *****

CITY           SKY/WX    TMP DP  RH WIND       PRES   REMARKS
SIOUX FALLS    FAIR      54  38  54 SW5       30.15S
BROOKINGS      FAIR      50  37  61 S7        30.14R
WATERTOWN      FAIR      48  40  73 SW10      30.10S
HURON          FAIR      54  37  52 S9        30.11S
SISSETON         N/A     50  43  77 N18G28    30.08R
ABERDEEN       FAIR      50  35  56 SW9       30.06S
MITCHELL       FAIR      56  37  49 S9        30.14S
PIERRE         FAIR      50  35  56 SE5       30.05F
MOBRIDGE       FAIR      53  36  52 SE3       30.02S
RAPID CITY     FAIR      46  33  60 S8        30.04S
$$

  *****  SOME WEATHER IN NEARBY STATES *****

CITY           SKY/WX    TMP DP  RH WIND       PRES   REMARKS
GLASGOW MT     CLOUDY    45  38  76 E20       30.02F
GREAT FALLS MT FAIR      52  38  58 E7        29.88S
CHEYENNE WY    FAIR      41  30  65 S13       30.18S
SCOTTSBLUFF NE FAIR      49  30  48 S9        30.15S
OMAHA NE       FAIR      49  37  63 N3        30.21R
DES MOINES IA  FAIR      54  32  43 CALM      30.18S
DAVENPORT IA   FAIR      47  32  56 N6        30.17S
CHICAGO IL     FAIR      48  23  37 CALM      30.16S
EAU CLAIRE WI  FAIR      54  34  46 SW3       30.09S
LA CROSSE WI   FAIR      50  39  66 S7        30.12F
$$

  *****  SOME NATIONAL WEATHER *****

CITY           SKY/WX    TMP DP  RH WIND       PRES   REMARKS
LA GUARDIA NY  MOCLDY    53  38  56 N7        30.00R
RALEIGH NC     CLOUDY    56  53  90 NE13      29.98F
ATLANTA GA     CLOUDY    71  59  65 N20       29.87S
NEW ORLEANS LA RAIN      73  71  93 W13       29.88F FOG
OKLAHOMA CITY  FAIR      49  41  74 W8        30.18R
ALBUQUERQUE NM FAIR      53  30  41 E33G46    30.18R
SALT LAKE CITY MOCLDY    54  41  61 CALM      30.03R
LOS ANGELES CA FAIR      64  52  64 W6        29.84R
BOISE ID       FAIR      63  32  31 SE13      29.82F
SEATTLE WA     MOCLDY    51  49  92 S8        29.96R
$$

*** WEATHER ACROSS MANITOBA...SASKATCHEWAN AND ONTARIO ***
                ***ONTARIO***

CITY           SKY/WX    TMP DP  RH WIND       PRES   REMARKS
GERALDTON      CLOUDY    27  25  93 N13G20    30.06R WCI  16
THUNDER BAY    CLOUDY    41  36  81 N15       30.07R
SIOUX LOOKOUT  CLOUDY    28  19  69 N6        30.17S WCI  22
TORONTO        CLEAR     43  27  52 NW6       30.10S
BIG TROUT LK   CLEAR     10   3  72 N6        30.25R WCI   1
PICKLE LAKE    NOT AVBL
DRYDEN         CLOUDY    28  23  80 NE7       30.18R WCI  21
KENORA         MOCLDY    30  25  80 N5        30.20R
$$
                *** MANITOBA***

CITY           SKY/WX    TMP DP  RH WIND       PRES   REMARKS
BRANDON        MOCLDY    30  14  51 NE10      30.29S WCI  21
DAUPHIN        CLEAR     28  16  59 CALM      30.32S
ISLAND LAKE    NOT AVBL
PILOT MOUND      N/A     30  21  69 NE10        N/A  WCI  21
THE PAS        PTCLDY    27  14  59 NE6       30.34R WCI  20
THOMPSON       CLEAR      1  -8  66 N5        30.36S WCI  -8
WINNIPEG       MOCLDY    28  16  59 N16       30.32R WCI  17
LYNN LAKE      CLEAR      7  -4  61 NW7       30.35S WCI  -5
CHURCHILL      FLURRIES  -2  -8  78 NW14G20   30.38F WCI -21
GILLAM         CLEAR     -2  -9  71 NW3       30.36S
$$
                ***SASKATCHEWAN***

CITY           SKY/WX    TMP DP  RH WIND       PRES   REMARKS
ESTEVAN        CLOUDY    36  32  87 E14G22    30.18S
KINDERSLEY     CLOUDY    36  30  80 E21G29    30.14R
LLOYDMINSTER   MOCLDY    34  21  60 NE10      30.19F
PRINCE ALBERT  PTCLDY    23  14  68 CALM      30.26R
REGINA         CLOUDY    39  28  65 E12G21    30.18S
YORKTON        CLOUDY    32  28  86 SE12      30.25R W


USA.gov is the U.S. government's official web portal to all federal, state and local government web resources and services.